ATLAS 5 CENTAUR DEB, 46865

Orbit data source: Space-Track

ATLAS 5 CENTAUR DEB, 46865 is space debris in HEO originally from a launch on Wed, 17 Oct 2018 UTC launched from the Air Force Eastern Test Range (AFETR). Debris objects in space refer to the collection of defunct objects orbiting the Earth. Examples of debris include non-operational satellites, rocket bodies, and fragments generated from explosions, collisions, or faulty payload assembly.

Not visible in the next 10 days
Identifier
46865, 2018-079DW
Orbit
HEO
Country
Flag of USUS
Related business
Flag of USUnited Launch Alliance/Lockheed Martin (US)
Manufacturer
ULA Decatur
Mission
Spacecraft
Bus & Motor
Unknown
Mass
Unknown
Launch date (UTC)
2018-10-17 (7 years ago)
Launch vehicle
Unknown
Launch site
Air Force Eastern Test Range (AFETR)
Object type
Payload
Rocket body
Debris
Shape & HBR
Unknown shape, 1.1 m
Radar Cross Section
RCS unknown

Expand to show TLE details & history
Last TLE update: 5 days ago

TLE from 5 days ago
0 ATLAS 5 CENTAUR DEB
1 46865U 18079DW  25338.24828360 -.00000069  00000-0  00000-0 0  9994
2 46865  12.8932  47.8438 4515630 298.3999  23.6010  1.88836616 35099
Epoch: 2025-12-04T05:57Z
TLE epoch observation values (Epoch: 2025-12-04T05:57:31.703Z)
Latitude
-0.00002°
Longitude
-114.93234°
Altitude
11,763.216 km
Speed
5.434 km/s
True Right ascension
03h 11m 01s
True Declination
0° 00' 00"
Sunlit
Object was in daylight at epoch
Visualization orbit readout
Latitude
Unknown
Longitude
Unknown
Altitude
Unknown
Speed
Unknown
Apparent Right ascension
Unknown
Apparent Declination
Unknown
Sunlit
N/A
Visualization observer readout
Local Sidereal Time
22:42:26
Azimuth
Unknown
Elevation
Unknown
Doppler factor
Unknown
Orbital elements
Apogee altitude
33,759.006 km
Perigee altitude
8,786.685 km
Semi-major axis
27,650.982 km
Eccentricity
0.45156
Inclination
12.8932°
RAAN
47.8438°
Arg. of periapsis
298.3999°
True anomaly
61.74422°
Mean anomaly
23.601°
Eccentric anomaly
40.35363°
Mean motion
0.47204 °/min
Orbital period
762.65 mins
BSTAR
0
Loading maneuver chart data...
Computing Atmospheric mass density...

Documentation

Showing up to 5 results
|